Overview Statistics Trail Chart Weather Telemetry Raw packets
 

This is the latest recevied weather packets stored in our database for station/object K7PMV-13. If no packets are shown the sender has not sent any weather packets the latest 10 day(s).

<< 57 58 59 60 61 62 63 >>
Time Temp. Humidity Pressure Rain* Wind** Luminosity Snow
1777276653 15.56° C 41% 1009.3 hPa 0 mm - 0 W/m² -
1777276351 16.11° C 41% 1009.3 hPa 0 mm - 0 W/m² -
1777276045 16.11° C 40% 1009.3 hPa 0 mm - 0 W/m² -
1777275742 16.11° C 39% 1009.2 hPa 0 mm - 0 W/m² -
1777275440 16.11° C 39% 1009.2 hPa 0 mm - 0 W/m² -
1777275137 16.67° C 38% 1009.2 hPa 0 mm - 0 W/m² -
1777274828 16.67° C 37% 1009.2 hPa 0 mm - 0 W/m² -
1777274525 16.67° C 37% 1009.3 hPa 0 mm - 0 W/m² -
1777274216 16.67° C 38% 1009.3 hPa 0 mm - 0 W/m² -
1777273913 17.22° C 37% 1009.3 hPa 0 mm - 0 W/m² -
1777273611 17.22° C 35% 1009.3 hPa 0 mm - 0 W/m² -
1777273308 17.78° C 34% 1009.4 hPa 0 mm - 0 W/m² -
1777273002 17.78° C 36% 1009.5 hPa 0 mm - 0 W/m² -
1777272694 17.78° C 35% 1009.4 hPa 0 mm - 0 W/m² -
1777272391 17.78° C 36% 1009.3 hPa 0 mm - 0 W/m² -
1777272085 17.22° C 36% 1009.3 hPa 0 mm - 0 W/m² -
1777271781 17.22° C 39% 1009.2 hPa 0 mm - 0 W/m² -
1777271479 17.22° C 40% 1009.1 hPa 0 mm - 0 W/m² -
1777271176 17.22° C 40% 1009 hPa 0 mm - 0 W/m² -
1777270873 16.67° C 41% 1009 hPa 0 mm - 0 W/m² -
1777270127 17.22° C 39% 853.8 hPa 0 mm - 0 W/m² -
1777269744 17.22° C 39% 1008.9 hPa 0 mm - 0 W/m² -
1777269442 17.22° C 38% 1008.9 hPa 0 mm - 0 W/m² -
1777269139 17.22° C 38% 1008.8 hPa 0 mm - 0 W/m² -
1777268836 17.22° C 37% 1008.8 hPa 0 mm - 0 W/m² -

* Rain latest hour (hover to see other rain measurements)
** Current wind speed in m/s (hover to see current wind gust speed)